Location: Bern�tre
(50.1974°N, 2.0915°E)
Time: 08:36:49
(UTC+00:00)

CZ-4 R/B - Pass Details

Date: 18 September 2020
Orbit: 530 x 600 km, 97.7° (Epoch: 27 October)

Event Time Altitude Azimuth Distance (km) Brightness Sun altitude
Rises 18:44:36 0° 182° (S) 2,837 4.8 -8.3°
Reaches altitude 10° 18:46:51 10° 189° (S) 1,939 4.1 -8.6°
Maximum altitude 18:50:53 44° 261° (W) 838 2.8 -9.2°
Drops below altitude 10° 18:54:56 10° 335° (NNW) 1,942 4.7 -9.9°
Sets 18:57:11 0° 342° (NNW) 2,842 5.5 -10.2°
